Location: Siratepeler Tepesi
(39.1042°N, 32.0781°E)
Time: 11:12:24
(UTC+00:00)

Cosmos 1943 Rocket - Pass Details

Date: 11 April 2026
Orbit: 809 x 844 km, 71.0° (Epoch: 14 May)

Event Time Altitude Azimuth Distance (km) Brightness Sun altitude
Rises 20:07:17 0° 326° (NNW) 3,407 6.3 -36.4°
Reaches altitude 10° 20:09:59 10° 317° (NW) 2,467 5.3 -36.7°
Enters shadow 20:13:06 26° 289° (WNW) 1,619 4.0 -37.0°
